RH
57 71 75 74 68 70 65 64 57 66 62 59 59 66 66 69 73 77 78 75 80 84 85 88 83 70 69 69 70 70 62 49 45 44 45 51 48 62 87 99 98 94 97
47 70 73 71 61 64 67 72 61 58 61 66 68 70 73 72 73 75 79 80 77 75 81 79 65 64 64 58 56 54 44 39 36 32 32 62 95 98 98 99 99 98 92
50 70 72 71 66 62 63 72 70 73 78 78 73 74 74 75 77 80 78 79 84 85 78 57 50 40 39 44 42 43 40 38 30 23 48 98 98 99 90 75 82 95 98
52 67 68 66 70 66 66 78 75 78 80 82 76 66 68 71 74 77 78 81 87 83 76 73 63 51 37 40 37 36 31 30 25 23 64 98 96 95 95 98 87 93 99
61 66 68 68 74 73 77 77 77 77 78 75 78 77 78 80 81 83 83 83 82 75 72 68 50 39 36 31 27 25 25 22 25 33 60 81 98 91 73 68 91 93 94
62 67 68 70 73 81 82 81 80 81 79 76 85 85 85 90 85 84 83 81 78 75 73 67 50 42 29 22 18 19 23 30 31 44 86 99 99 100 93 67 83 80 96
66 69 71 70 78 84 83 84 79 76 77 68 69 69 67 72 76 76 77 78 79 76 74 67 48 34 24 20 18 22 27 29 34 50 84 97 98 99 98 99 100 97 58
65 73 76 79 83 82 77 73 75 77 72 66 52 41 44 67 68 79 79 78 74 74 71 72 53 41 20 20 20 23 31 31 36 47 95 100 100 99 99 91 52 32 16
72 77 80 86 87 83 76 76 77 74 73 53 47 42 43 46 52 85 78 77 81 76 76 76 59 32 22 19 21 22 26 27 39 51 94 98 97 98 94 74 21 14 14
77 83 89 90 87 79 72 78 72 72 65 53 52 53 45 39 49 60 69 73 73 76 80 73 59 37 22 22 22 30 31 34 49 78 99 99 95 96 46 14 13 14 16
86 90 89 83 77 71 67 76 74 76 75 72 58 54 49 42 56 62 65 69 76 79 77 66 55 41 25 21 22 27 29 30 39 94 99 95 94 23 14 14 16 17 18
89 87 82 81 77 77 78 81 83 85 75 59 49 50 50 57 57 54 68 75 79 76 72 64 56 47 33 24 25 28 32 36 39 96 96 97 29 14 15 17 19 20 21
89 84 89 83 81 79 77 81 84 80 72 59 54 53 55 59 55 54 64 66 69 72 63 62 57 51 41 31 27 31 36 37 57 98 98 41 19 17 18 20 21 22 23
83 87 89 86 84 86 83 86 83 78 73 59 57 56 56 58 57 55 57 58 59 60 56 58 56 54 45 42 32 28 37 39 57 84 72 40 18 19 21 22 24 24 25
88 90 91 86 83 78 82 85 82 74 68 58 60 61 61 59 60 62 61 62 60 57 61 56 54 51 48 45 34 34 33 45 55 42 31 19 18 20 22 23 24 25 26
90 91 90 86 85 82 80 75 76 74 63 63 63 61 61 61 63 67 68 67 65 62 65 64 52 50 48 49 41 34 33 41 39 40 33 17 16 18 20 22 23 24 26
92 90 89 87 85 82 79 73 66 66 65 59 57 58 58 62 66 69 72 68 62 50 55 54 48 48 48 43 41 38 34 36 37 39 29 16 16 17 20 21 23 24 25
92 91 91 89 91 88 77 70 71 65 61 59 58 62 62 66 68 67 69 70 64 55 47 43 41 42 44 45 43 40 39 36 34 40 36 18 16 17 18 21 22 24 24
90 89 87 89 88 85 76 72 73 65 62 61 62 63 69 75 76 73 70 68 66 61 55 53 49 46 42 42 41 40 40 36 37 43 41 23 18 18 19 21 22 23 24
89 83 81 84 80 80 70 73 74 72 74 70 67 72 70 71 72 75 75 75 72 66 60 58 52 46 48 46 44 43 42 44 46 47 47 37 26 20 19 21 22 23 24
90 82 81 81 85 77 69 73 81 79 86 80 82 78 73 68 71 72 71 70 68 63 58 52 47 50 50 52 51 48 48 50 50 49 47 46 43 36 25 21 21 22 25
89 84 84 84 80 77 73 75 78 82 86 84 83 83 85 83 76 72 72 70 70 65 56 56 55 53 57 60 56 54 55 54 52 51 48 47 45 43 36 31 30 27 26
92 87 83 80 74 78 81 87 84 88 79 82 84 88 87 85 83 81 76 73 69 59 59 58 58 60 63 62 61 54 52 48 50 51 52 50 49 49 48 45 42 39 31
87 83 69 74 78 78 83 85 84 76 77 82 84 89 88 89 86 84 83 80 78 73 68 62 61 61 65 69 67 60 55 54 55 53 53 52 52 52 49 47 48 47 40
80 78 71 70 75 77 78 82 80 79 77 76 82 86 88 89 88 87 86 84 79 76 76 73 67 67 69 71 71 67 62 61 61 62 64 58 57 56 54 51 50 50 43
74 70 71 70 68 73 74 78 73 77 83 81 82 85 89 90 90 88 87 86 84 84 84 80 74 73 73 74 75 76 72 69 65 66 64 64 66 64 60 53 43 41 40
Wind_Speed
22 21 20 19 17 17 16 16 17 18 18 20 20 18 18 20 20 21 21 21 22 23 21 19 19 18 17 17 18 18 17 17 19 21 22 23 23 26 28 28 29 28 28
25 23 21 19 18 17 17 16 18 18 18 18 18 19 19 19 20 21 21 21 19 17 18 18 19 18 18 17 16 16 17 17 18 20 24 26 28 28 28 27 27 26 24
25 24 22 19 18 18 17 16 17 16 17 17 18 20 20 21 21 21 21 20 20 18 19 18 17 17 16 16 16 16 17 17 18 20 27 28 27 27 25 25 25 26 24
25 24 22 19 19 18 18 17 19 19 19 19 17 16 18 19 20 20 19 19 19 17 17 17 15 16 17 16 16 16 16 16 18 21 27 27 25 23 25 23 23 23 22
24 24 21 20 19 19 19 19 18 17 18 20 20 19 18 18 19 19 18 18 17 16 17 16 17 18 18 17 17 17 17 17 19 23 24 26 25 22 22 22 23 22 22
24 23 20 19 19 20 20 19 18 18 17 20 19 18 18 15 18 17 15 16 16 16 17 17 17 16 17 17 18 18 18 19 20 23 24 24 23 21 22 22 22 21 22
25 23 20 20 22 23 23 21 20 19 16 15 17 17 16 8 10 12 14 15 15 15 15 15 16 17 17 17 18 18 18 18 20 23 22 23 22 21 21 21 21 20 20
25 24 22 22 23 22 23 21 20 19 19 20 20 13 11 10 9 12 15 14 13 13 13 15 15 15 16 17 18 18 17 17 19 22 23 23 19 21 20 19 19 19 20
24 25 25 25 25 25 23 15 13 13 17 25 21 12 10 8 9 12 13 13 13 13 12 13 15 14 16 17 17 17 16 16 19 20 21 22 19 19 18 18 19 20 20
26 28 28 26 27 21 12 18 18 19 23 24 14 11 11 12 12 11 11 12 13 11 11 12 13 14 16 16 16 16 16 16 18 19 21 19 16 18 17 19 18 18 18
28 28 28 25 20 17 13 18 18 18 20 14 13 12 12 13 13 12 10 11 12 11 10 10 13 13 14 15 15 14 14 15 16 20 18 16 16 17 17 17 17 17 17
30 29 25 21 20 22 23 23 22 17 16 16 14 13 13 14 13 12 12 12 12 11 10 11 12 12 12 13 14 12 12 13 15 18 14 15 14 16 15 15 15 16 15
31 29 24 23 22 22 23 23 21 18 17 16 15 14 14 14 13 12 12 12 11 9 9 9 9 10 11 11 12 12 11 11 15 16 13 12 13 14 14 13 14 14 14
30 27 26 24 22 21 22 22 20 18 16 15 15 14 12 14 13 13 12 10 9 9 8 8 7 8 9 11 10 10 11 11 12 13 13 12 12 12 11 12 12 12 13
30 29 26 24 22 20 20 21 20 19 16 15 15 14 12 11 12 13 12 10 8 7 6 6 5 7 8 8 9 8 9 10 10 9 9 9 9 9 9 10 9 10 13
31 29 26 23 20 18 17 19 19 18 16 14 14 14 13 10 11 11 11 10 8 7 7 6 6 6 7 7 7 8 7 8 8 7 7 6 6 6 6 6 8 10 12
31 29 27 23 20 16 15 18 19 17 14 13 13 13 12 11 10 9 9 9 8 7 8 7 7 7 6 6 6 7 7 7 7 6 5 4 4 3 3 4 6 8 11
31 29 27 24 20 15 15 19 19 15 14 12 13 13 11 10 9 8 8 8 8 8 7 7 6 7 6 6 5 6 7 6 6 6 5 4 3 1 1 3 5 7 10
31 29 27 25 21 17 18 19 17 14 12 12 12 11 9 10 8 7 7 8 7 7 7 7 6 7 6 6 6 5 6 6 7 6 5 4 4 3 2 2 4 6 8
31 28 26 25 21 19 19 20 15 14 12 11 11 9 8 9 9 8 8 8 7 8 8 8 8 8 8 7 7 7 7 8 8 8 8 7 6 5 5 4 5 7 9
31 29 27 25 22 22 23 21 18 16 13 10 8 8 7 6 8 7 6 7 7 7 8 9 9 9 9 8 8 9 9 9 10 10 10 10 9 9 8 7 7 8 9
32 30 27 24 22 24 22 19 17 14 11 8 7 6 6 5 6 5 5 6 7 8 9 9 9 10 10 11 10 9 6 10 13 13 13 13 12 12 11 11 11 11 11
32 30 26 23 21 24 22 20 18 16 14 14 13 11 9 6 4 5 5 6 6 7 8 9 10 11 11 11 12 10 5 6 4 11 15 16 15 15 15 14 14 14 13
32 30 26 22 22 22 23 22 20 16 17 16 15 14 12 10 8 6 5 6 8 6 7 9 10 11 12 13 14 16 15 11 4 5 7 11 16 17 18 18 18 17 16
30 31 29 24 24 21 21 23 21 23 19 16 16 16 16 14 13 12 10 8 8 9 9 9 12 12 13 14 15 16 17 18 18 16 15 13 13 14 17 19 20 20 19
31 31 31 30 28 27 26 23 27 24 25 23 20 19 19 17 17 16 15 14 10 9 10 10 11 14 14 15 16 17 19 20 19 19 20 21 21 20 19 19 20 20 20
Wind_Direction
166 165 159 154 148 145 139 133 127 129 133 132 130 126 123 119 120 117 116 114 113 109 109 113 108 112 109 106 102 101 97 91 90 94 95 92 92 88 86 84 84 84 82
159 162 158 155 150 146 142 140 135 133 132 128 123 124 124 122 123 122 119 116 112 112 113 106 105 104 101 100 96 94 90 89 90 93 96 92 87 87 86 86 83 82 82
159 159 155 155 152 147 145 144 140 138 131 130 130 129 127 124 124 123 121 116 112 111 106 105 103 99 99 98 97 91 90 93 99 100 94 91 90 88 91 88 83 80 78
158 157 155 154 155 153 152 146 142 139 137 133 132 135 130 129 130 126 124 121 118 111 106 101 94 94 95 99 95 94 95 100 101 106 99 92 89 86 85 85 85 82 78
157 156 154 152 154 153 150 148 142 140 139 135 136 129 126 128 125 122 124 124 123 114 108 99 95 96 100 100 97 98 102 105 106 102 98 95 91 88 89 89 85 79 76
155 155 155 151 150 145 145 143 138 136 135 132 128 125 115 115 126 129 125 127 124 118 107 99 96 99 101 101 101 102 104 106 107 103 96 93 91 89 86 84 83 82 76
154 155 154 150 147 148 144 137 133 135 139 152 139 113 108 131 129 129 125 125 122 114 105 100 96 99 102 102 102 103 105 106 106 102 98 93 91 90 88 87 82 80 76
155 152 151 150 148 145 137 133 135 131 131 127 124 125 120 124 124 133 127 129 126 120 114 102 95 96 101 103 101 103 105 104 100 97 96 92 92 89 86 85 84 80 75
156 154 150 150 146 143 133 134 135 135 155 144 139 139 140 153 164 147 137 136 127 120 116 103 95 93 101 104 104 105 107 105 102 99 96 94 93 89 86 85 83 76 71
157 155 152 153 151 157 188 161 149 154 154 150 169 159 157 154 151 150 148 143 136 130 121 109 97 94 101 102 103 106 107 106 101 97 93 98 99 90 89 83 79 75 70
160 159 158 160 163 158 151 158 162 163 161 166 161 150 141 142 144 146 146 143 138 134 123 110 98 92 97 103 105 107 108 105 105 96 100 96 96 92 87 83 78 72 66
165 166 166 169 167 160 154 148 159 160 157 157 153 147 143 142 142 144 144 143 138 132 123 115 101 95 98 104 107 107 107 106 107 103 105 101 97 94 90 85 79 72 64
166 168 166 164 162 157 155 158 165 162 158 154 153 151 148 146 142 143 143 140 137 128 123 115 107 99 98 103 109 112 107 106 112 113 119 108 100 96 92 85 76 68 61
167 166 163 162 162 165 166 168 169 169 165 159 156 154 156 152 150 148 152 147 145 134 134 124 114 108 106 106 111 118 116 117 121 127 121 108 101 98 92 82 73 64 54
170 167 167 166 168 170 173 172 173 172 170 164 160 155 158 160 159 159 156 154 151 148 145 142 133 130 122 119 121 125 126 130 123 113 112 106 103 98 87 77 66 55 46
174 171 170 170 172 170 172 175 176 172 168 165 163 162 160 163 167 165 164 162 169 170 164 154 147 144 136 123 126 132 137 142 139 133 122 114 109 99 87 71 55 44 35
177 175 173 174 176 174 170 168 167 167 167 168 168 166 164 165 167 171 173 172 176 167 167 167 165 160 157 140 139 139 148 154 150 149 144 135 124 109 80 52 39 31 27
181 180 175 179 178 176 177 171 171 171 174 175 171 169 169 168 169 177 181 179 179 175 167 169 170 169 170 164 163 159 158 160 163 169 174 167 172 181 17 16 14 14 19
186 183 182 183 185 184 179 173 175 176 178 178 178 178 177 175 177 176 182 186 187 187 185 185 189 187 191 193 188 182 176 177 184 193 199 206 217 238 271 322 340 355 3
189 191 190 190 192 191 180 174 180 178 177 181 180 184 183 185 188 189 189 193 201 203 207 210 205 205 201 202 204 197 198 202 209 213 221 227 234 249 264 284 309 333 343
194 195 194 195 198 192 181 180 180 181 180 175 178 186 183 187 191 193 204 213 217 217 212 211 211 209 212 207 210 215 218 224 228 231 235 240 247 257 267 279 296 311 326
199 199 199 204 204 194 192 190 191 187 186 185 187 184 181 197 205 212 224 222 227 223 220 220 225 227 222 219 217 223 231 244 246 245 244 248 254 260 266 274 289 303 312
204 204 204 205 203 201 198 195 191 197 209 214 215 219 217 212 215 220 233 233 222 219 229 232 234 234 237 235 231 225 228 236 273 252 251 255 259 263 268 275 283 289 296
205 207 211 216 215 209 206 207 204 208 217 220 224 232 237 236 236 230 232 242 234 232 235 240 237 237 239 242 242 239 243 256 278 290 278 271 268 269 273 277 280 285 290
207 210 211 215 217 217 218 219 221 224 222 228 229 237 248 243 244 243 244 250 248 250 258 252 247 244 245 246 248 254 255 260 265 267 280 291 288 291 286 284 281 282 285
210 215 217 215 218 219 221 228 229 231 224 230 234 236 246 251 250 251 250 252 254 252 262 267 259 251 254 255 254 256 256 259 268 273 276 283 287 287 288 287 284 283 284